SWR9GE LSZH-EDDB

Flight info

Callsign SWR9GE
Flight time 1h 1m
Altitude 38000
Route DEGES Z1 ETAGO DCT TIKNI T279 TAMEB T278 KLF KLF1R
Aircraft B77W/H-SDE1E2E3FGHIJ2J3J4J5M1RWXY/LB1D1

Departure

Time 2026-05-06 12:27
Airport Zürich Airport (LSZH)

Arrival

Time 2026-05-06 13:28
Airport Berlin Brandenburg Airport (EDDB)
Time Latitude Longitude Altitude Speed Heading
2026-05-06 12:00 47.46025 8.55731 1390 ft 0 kts
2026-05-06 12:20 47.46014 8.55729 1390 ft 2 kts
2026-05-06 12:20 47.46000 8.55727 1390 ft 2 kts
2026-05-06 12:20 47.45985 8.55725 1390 ft 2 kts
2026-05-06 12:21 47.45970 8.55720 1390 ft 2 kts 29°
2026-05-06 12:21 47.45959 8.55707 1390 ft 2 kts 54°
2026-05-06 12:21 47.45953 8.55688 1390 ft 2 kts 76°
2026-05-06 12:21 47.45952 8.55670 1390 ft 0 kts 96°
2026-05-06 12:22 47.45952 8.55664 1390 ft 0 kts 97°
2026-05-06 12:23 47.45952 8.55668 1390 ft 1 kts 96°
2026-05-06 12:23 47.45948 8.55714 1390 ft 7 kts 95°
2026-05-06 12:24 47.45942 8.55818 1390 ft 12 kts 96°
2026-05-06 12:24 47.45932 8.55962 1390 ft 15 kts 96°
2026-05-06 12:24 47.45920 8.56141 1390 ft 19 kts 96°
2026-05-06 12:24 47.45905 8.56348 1390 ft 19 kts 100°
2026-05-06 12:25 47.45835 8.56488 1391 ft 13 kts 133°
2026-05-06 12:25 47.45798 8.56611 1392 ft 13 kts 98°
2026-05-06 12:25 47.45788 8.56743 1392 ft 12 kts 96°
2026-05-06 12:25 47.45778 8.56871 1393 ft 12 kts 98°
2026-05-06 12:26 47.45761 8.56987 1394 ft 10 kts 124°
2026-05-06 12:26 47.45686 8.57027 1394 ft 12 kts 183°
2026-05-06 12:26 47.45662 8.57001 1394 ft 3 kts 269°
2026-05-06 12:26 47.45667 8.56932 1393 ft 18 kts 276°
2026-05-06 12:27 47.45709 8.56340 1387 ft 100 kts 276°
2026-05-06 12:27 47.45810 8.54946 1455 ft 165 kts 277°
2026-05-06 12:27 47.45938 8.53184 2079 ft 183 kts 277°
2026-05-06 12:27 47.46061 8.51432 3292 ft 164 kts 276°
2026-05-06 12:28 47.46182 8.49713 3755 ft 178 kts 275°
2026-05-06 12:28 47.46276 8.47819 4157 ft 195 kts 263°
2026-05-06 12:28 47.45855 8.45836 4488 ft 216 kts 239°
2026-05-06 12:28 47.44736 8.44247 4842 ft 239 kts 214°
2026-05-06 12:29 47.43430 8.42635 5349 ft 254 kts 235°
2026-05-06 12:29 47.42760 8.40175 5992 ft 265 kts 260°
2026-05-06 12:29 47.42432 8.37566 6923 ft 264 kts 252°
2026-05-06 12:29 47.41535 8.35244 7679 ft 269 kts 228°
2026-05-06 12:30 47.40008 8.33670 8548 ft 272 kts 202°
2026-05-06 12:30 47.38153 8.33199 9322 ft 279 kts 178°
2026-05-06 12:30 47.36281 8.33993 10045 ft 288 kts 152°
2026-05-06 12:30 47.34761 8.36013 10510 ft 307 kts 125°
2026-05-06 12:31 47.34015 8.39020 10898 ft 330 kts 96°
2026-05-06 12:31 47.34334 8.42438 11318 ft 352 kts 69°
2026-05-06 12:31 47.35706 8.45516 11764 ft 371 kts 47°
2026-05-06 12:31 47.37719 8.48031 12323 ft 387 kts 33°
2026-05-06 12:32 47.40042 8.50060 13203 ft 394 kts 32°
2026-05-06 12:32 47.42293 8.52417 14219 ft 399 kts 39°
2026-05-06 12:32 47.44371 8.55142 15254 ft 405 kts 45°
2026-05-06 12:32 47.46270 8.58169 16373 ft 407 kts 53°
2026-05-06 12:33 47.47807 8.61698 17447 ft 410 kts 64°
2026-05-06 12:33 47.48889 8.65612 18417 ft 415 kts 76°
2026-05-06 12:33 47.49458 8.69750 19379 ft 418 kts 87°
2026-05-06 12:33 47.49493 8.74042 20313 ft 421 kts 98°
2026-05-06 12:34 47.49008 8.78296 21270 ft 424 kts 105°
2026-05-06 12:34 47.48446 8.82547 22263 ft 429 kts 102°
2026-05-06 12:34 47.48015 8.86916 23190 ft 435 kts 99°
2026-05-06 12:34 47.47687 8.91401 24001 ft 440 kts 102°
2026-05-06 12:35 47.46963 8.95802 24584 ft 448 kts 111°
2026-05-06 12:35 47.46646 8.97226 24771 ft 451 kts 112°
2026-05-06 12:35 47.44921 9.04621 26043 ft 462 kts 113°
2026-05-06 12:35 47.43921 9.09130 26784 ft 471 kts 109°
2026-05-06 12:36 47.43316 9.13889 27515 ft 482 kts 100°
2026-05-06 12:36 47.43203 9.18899 28168 ft 496 kts 92°
2026-05-06 12:36 47.43625 9.24048 28827 ft 509 kts 82°
2026-05-06 12:36 47.44599 9.29070 29569 ft 519 kts 72°
2026-05-06 12:37 47.46101 9.33886 30428 ft 524 kts 64°
2026-05-06 12:37 47.48077 9.38384 31242 ft 527 kts 54°
2026-05-06 12:37 47.50513 9.42506 31966 ft 530 kts 45°
2026-05-06 12:37 47.53282 9.46036 32662 ft 531 kts 37°
2026-05-06 12:38 47.56348 9.48965 33244 ft 532 kts 27°
2026-05-06 12:38 47.59738 9.51276 33796 ft 532 kts 18°
2026-05-06 12:38 47.63216 9.52811 34334 ft 529 kts
2026-05-06 12:38 47.66855 9.53603 34852 ft 522 kts 359°
2026-05-06 12:39 47.70401 9.53601 35462 ft 510 kts 351°
2026-05-06 12:39 47.73831 9.52864 36110 ft 498 kts 342°
2026-05-06 12:39 47.77117 9.51531 36874 ft 489 kts 339°
2026-05-06 12:39 47.80404 9.50310 37437 ft 489 kts 343°
2026-05-06 12:40 47.83755 9.49284 37870 ft 492 kts 345°
2026-05-06 12:40 47.87104 9.48474 37822 ft 495 kts 348°
2026-05-06 12:40 47.93924 9.47435 37819 ft 495 kts 352°
2026-05-06 12:41 48.00794 9.46872 37803 ft 497 kts 354°
2026-05-06 12:41 48.07709 9.46563 37802 ft 499 kts 355°
2026-05-06 12:42 48.14630 9.46388 37791 ft 498 kts 356°
2026-05-06 12:42 48.21555 9.46297 37792 ft 498 kts 356°
2026-05-06 12:43 48.28433 9.46257 37790 ft 497 kts 356°
2026-05-06 12:43 48.35326 9.46238 37792 ft 497 kts 356°
2026-05-06 12:44 48.42226 9.46230 37791 ft 499 kts 356°
2026-05-06 12:44 48.49130 9.46228 37791 ft 498 kts 357°
2026-05-06 12:45 48.56021 9.46209 37796 ft 497 kts 356°
2026-05-06 12:46 48.66397 9.46081 37789 ft 497 kts 356°
2026-05-06 12:46 48.73293 9.46208 37793 ft 498 kts
2026-05-06 12:47 48.80126 9.47732 37789 ft 501 kts
2026-05-06 12:47 48.86997 9.49379 37790 ft 500 kts
2026-05-06 12:48 48.93881 9.51029 37789 ft 503 kts
2026-05-06 12:48 49.00739 9.52676 37788 ft 500 kts
2026-05-06 12:49 49.07586 9.54323 37793 ft 502 kts
2026-05-06 12:49 49.14460 9.55981 37788 ft 501 kts
2026-05-06 12:50 49.21339 9.57644 37786 ft 500 kts
2026-05-06 12:50 49.28169 9.59300 37789 ft 501 kts
2026-05-06 12:51 49.34996 9.60960 37786 ft 499 kts
2026-05-06 12:51 49.41836 9.62627 37785 ft 499 kts
2026-05-06 12:52 49.48672 9.64298 37783 ft 499 kts
2026-05-06 12:52 49.55508 9.65974 37770 ft 498 kts
2026-05-06 12:53 49.62333 9.67652 37774 ft 498 kts
2026-05-06 12:53 49.69148 9.69332 37766 ft 497 kts
2026-05-06 12:54 49.75915 9.71005 37765 ft 496 kts
2026-05-06 12:54 49.82743 9.72697 37766 ft 497 kts
2026-05-06 12:55 49.89532 9.74385 37766 ft 497 kts
2026-05-06 12:55 49.96363 9.76089 37760 ft 496 kts
2026-05-06 12:56 50.03161 9.77788 37756 ft 497 kts
2026-05-06 12:56 50.09945 9.79490 37745 ft 495 kts
2026-05-06 12:57 50.16726 9.81195 37744 ft 495 kts
2026-05-06 12:57 50.23491 9.82901 37741 ft 495 kts
2026-05-06 12:58 50.30261 9.84614 37746 ft 495 kts
2026-05-06 12:58 50.36995 9.86792 37742 ft 496 kts 18°
2026-05-06 12:59 50.43119 9.91726 37744 ft 498 kts 36°
2026-05-06 12:59 50.48158 9.99124 37750 ft 501 kts 47°
2026-05-06 13:00 50.52882 10.07039 37750 ft 500 kts 47°
2026-05-06 13:00 50.57619 10.14984 37747 ft 500 kts 47°
2026-05-06 13:01 50.62375 10.22972 37755 ft 500 kts 47°
2026-05-06 13:01 50.66082 10.30282 37751 ft 499 kts 59°
2026-05-06 13:02 50.69442 10.39809 37756 ft 498 kts 62°
2026-05-06 13:02 50.72732 10.49397 37758 ft 499 kts 62°
2026-05-06 13:03 50.76007 10.58979 37761 ft 499 kts 62°
2026-05-06 13:03 50.79303 10.68658 37757 ft 499 kts 63°
2026-05-06 13:04 50.82551 10.78229 37757 ft 499 kts 63°
2026-05-06 13:04 50.85811 10.87873 37761 ft 499 kts 63°
2026-05-06 13:05 50.89059 10.97523 37762 ft 499 kts 63°
2026-05-06 13:05 50.92312 11.07225 37769 ft 500 kts 63°
2026-05-06 13:06 50.95555 11.16931 37762 ft 498 kts 63°
2026-05-06 13:06 50.98774 11.26605 37329 ft 504 kts 63°
2026-05-06 13:06 51.00399 11.31500 36909 ft 503 kts 63°
2026-05-06 13:07 51.02095 11.36345 36479 ft 502 kts 57°
2026-05-06 13:07 51.04145 11.40705 36072 ft 501 kts 48°
2026-05-06 13:07 51.06608 11.44596 35661 ft 503 kts 41°
2026-05-06 13:07 51.09277 11.48278 35250 ft 508 kts 40°
2026-05-06 13:08 51.11934 11.51909 34833 ft 510 kts 40°
2026-05-06 13:08 51.14619 11.55583 34407 ft 511 kts 40°
2026-05-06 13:08 51.17315 11.59276 34010 ft 513 kts 40°
2026-05-06 13:08 51.19990 11.62947 33591 ft 513 kts 40°
2026-05-06 13:09 51.22694 11.66663 32941 ft 515 kts 41°
2026-05-06 13:09 51.25373 11.70352 32241 ft 512 kts 41°
2026-05-06 13:09 51.28086 11.74093 31549 ft 517 kts 40°
2026-05-06 13:09 51.30769 11.77798 30858 ft 517 kts 41°
2026-05-06 13:10 51.33501 11.81577 30027 ft 517 kts 41°
2026-05-06 13:10 51.36177 11.85284 29211 ft 515 kts 41°
2026-05-06 13:10 51.38879 11.89035 28392 ft 509 kts 41°
2026-05-06 13:10 51.41488 11.92662 27600 ft 500 kts 41°
2026-05-06 13:11 51.44073 11.96260 26802 ft 491 kts 41°
2026-05-06 13:11 51.46602 11.99788 26012 ft 478 kts 41°
2026-05-06 13:11 51.49065 12.03228 25218 ft 466 kts 41°
2026-05-06 13:11 51.51487 12.06615 24421 ft 454 kts 41°
2026-05-06 13:12 51.53813 12.09873 23632 ft 444 kts 40°
2026-05-06 13:12 51.56120 12.13109 22835 ft 434 kts 41°
2026-05-06 13:12 51.58348 12.16237 22054 ft 425 kts 40°
2026-05-06 13:12 51.60553 12.19339 21278 ft 417 kts 40°
2026-05-06 13:13 51.62710 12.22377 20533 ft 410 kts 41°
2026-05-06 13:13 51.64822 12.25355 19747 ft 403 kts 41°
2026-05-06 13:13 51.66899 12.28287 18988 ft 398 kts 40°
2026-05-06 13:13 51.68948 12.31184 18230 ft 394 kts 41°
2026-05-06 13:14 51.70988 12.34072 17513 ft 391 kts 40°
2026-05-06 13:14 51.73035 12.36972 16741 ft 387 kts 40°
2026-05-06 13:14 51.75025 12.39797 15994 ft 382 kts 40°
2026-05-06 13:14 51.76979 12.42573 15198 ft 379 kts 40°
2026-05-06 13:15 51.78963 12.45394 13935 ft 388 kts 40°
2026-05-06 13:15 51.80990 12.48280 12779 ft 391 kts 40°
2026-05-06 13:15 51.82994 12.51138 11923 ft 384 kts 40°
2026-05-06 13:15 51.84960 12.53946 11262 ft 373 kts 40°
2026-05-06 13:16 51.86882 12.56694 10725 ft 365 kts 40°
2026-05-06 13:16 51.88751 12.59370 10394 ft 355 kts 40°
2026-05-06 13:16 51.90543 12.61940 10372 ft 338 kts 40°
2026-05-06 13:16 51.92268 12.64414 10261 ft 327 kts 40°
2026-05-06 13:17 51.93948 12.66828 10110 ft 317 kts 40°
2026-05-06 13:17 51.95552 12.69134 9955 ft 307 kts 40°
2026-05-06 13:17 51.97140 12.71420 9823 ft 298 kts 40°
2026-05-06 13:17 51.98663 12.73612 9492 ft 298 kts 40°
2026-05-06 13:18 52.00220 12.75856 9064 ft 300 kts 40°
2026-05-06 13:18 52.01774 12.78097 8686 ft 300 kts 40°
2026-05-06 13:18 52.03327 12.80340 8320 ft 300 kts 40°
2026-05-06 13:18 52.04890 12.82598 7941 ft 298 kts 40°
2026-05-06 13:19 52.06402 12.84787 7722 ft 290 kts 40°
2026-05-06 13:19 52.07892 12.86945 7430 ft 288 kts 40°
2026-05-06 13:19 52.09390 12.89116 7106 ft 286 kts 40°
2026-05-06 13:19 52.10865 12.91257 6725 ft 285 kts 40°
2026-05-06 13:20 52.12324 12.93376 6412 ft 282 kts 40°
2026-05-06 13:20 52.13798 12.95517 6077 ft 282 kts 40°
2026-05-06 13:20 52.15248 12.97627 5748 ft 281 kts 40°
2026-05-06 13:20 52.16692 12.99729 5417 ft 275 kts 40°
2026-05-06 13:21 52.18085 13.01760 5100 ft 269 kts 40°
2026-05-06 13:21 52.19459 13.03764 4777 ft 261 kts 40°
2026-05-06 13:21 52.20777 13.05690 4642 ft 244 kts 40°
2026-05-06 13:21 52.21999 13.07475 4605 ft 230 kts 40°
2026-05-06 13:22 52.23157 13.09170 4524 ft 220 kts 40°
2026-05-06 13:22 52.24284 13.10817 4442 ft 212 kts 40°
2026-05-06 13:22 52.25386 13.12390 4358 ft 208 kts 38°
2026-05-06 13:22 52.26367 13.14030 4276 ft 200 kts 51°
2026-05-06 13:23 52.27070 13.15952 4120 ft 196 kts 61°
2026-05-06 13:23 52.27617 13.17982 3873 ft 196 kts 65°
2026-05-06 13:23 52.28119 13.20035 3624 ft 196 kts 66°
2026-05-06 13:23 52.28603 13.22053 3375 ft 185 kts 66°
2026-05-06 13:24 52.29060 13.23954 3146 ft 175 kts 65°
2026-05-06 13:24 52.29490 13.25739 2925 ft 165 kts 65°
2026-05-06 13:24 52.29887 13.27392 2722 ft 147 kts 65°
2026-05-06 13:24 52.30243 13.28868 2531 ft 136 kts 65°
2026-05-06 13:25 52.30588 13.30308 2349 ft 134 kts 64°
2026-05-06 13:25 52.30927 13.31719 2170 ft 132 kts 64°
2026-05-06 13:25 52.31256 13.33096 1987 ft 131 kts 65°
2026-05-06 13:25 52.31587 13.34478 1809 ft 132 kts 65°
2026-05-06 13:26 52.31921 13.35875 1625 ft 131 kts 65°
2026-05-06 13:26 52.32251 13.37258 1442 ft 132 kts 65°
2026-05-06 13:26 52.32587 13.38664 1254 ft 132 kts 65°
2026-05-06 13:26 52.32912 13.40085 1025 ft 134 kts 66°
2026-05-06 13:27 52.33261 13.41484 823 ft 133 kts 64°
2026-05-06 13:27 52.33614 13.42873 678 ft 133 kts 66°
2026-05-06 13:27 52.33943 13.44301 507 ft 133 kts 66°
2026-05-06 13:27 52.34277 13.45731 317 ft 135 kts 66°
2026-05-06 13:28 52.34617 13.47150 164 ft 131 kts 65°
2026-05-06 13:28 52.34913 13.48367 152 ft 93 kts 68°
2026-05-06 13:28 52.35097 13.49164 151 ft 64 kts 69°
2026-05-06 13:28 52.35209 13.49629 153 ft 34 kts 65°
2026-05-06 13:29 52.35307 13.49879 153 ft 14 kts 49°
2026-05-06 13:29 52.35378 13.49991 153 ft 14 kts 39°
2026-05-06 13:29 52.35460 13.50101 151 ft 15 kts 39°
2026-05-06 13:29 52.35547 13.50217 150 ft 16 kts 39°
2026-05-06 13:30 52.35615 13.50358 150 ft 15 kts 62°
2026-05-06 13:30 52.35644 13.50475 150 ft 8 kts 69°
2026-05-06 13:30 52.35668 13.50580 148 ft 11 kts 70°
2026-05-06 13:30 52.35692 13.50683 146 ft 1 kts 60°
2026-05-06 13:31 52.35701 13.50693 146 ft 2 kts 23°
2026-05-06 13:31 52.35718 13.50693 147 ft 2 kts 348°
2026-05-06 13:31 52.35771 13.50666 146 ft 16 kts 341°
2026-05-06 13:31 52.35877 13.50602 146 ft 16 kts 339°
2026-05-06 13:32 52.35980 13.50539 146 ft 15 kts 338°
2026-05-06 13:32 52.36079 13.50473 146 ft 15 kts 338°
2026-05-06 13:32 52.36177 13.50413 146 ft 15 kts 338°
2026-05-06 13:32 52.36275 13.50386 146 ft 14 kts 15°
2026-05-06 13:33 52.36359 13.50438 146 ft 11 kts 13°
2026-05-06 13:33 52.36401 13.50502 146 ft 7 kts 68°
2026-05-06 13:33 52.36414 13.50555 146 ft 2 kts 68°
2026-05-06 13:33 52.36419 13.50578 146 ft 0 kts 68°